Weather reports worldwide

Advertisment
Cluanie Inn No 3, United Kingdom (99117): temperature & dewpoint: 18.06.2017 04:00:00 - 24.06.2017 04:00:00 (BST)Cluanie Inn No 3, United Kingdom (99117): temperature 5cm: 18.06.2017 04:00:00 - 24.06.2017 04:00:00 (BST)Cluanie Inn No 3, United Kingdom (99117): visibility: 18.06.2017 04:00:00 - 24.06.2017 04:00:00 (BST)Cluanie Inn No 3, United Kingdom (99117): precipitation: 18.06.2017 04:00:00 - 24.06.2017 04:00:00 (BST)
Date & Time tt [°C] td [°C] tt 5cm [°C] vv [km] rr [mm]
24.06.2017 04:00:00 - - - - -
24.06.2017 03:00:00 8,0 5,8 - - 1,0
24.06.2017 02:00:00 8,3 5,8 - - 0,8
24.06.2017 01:00:00 9,3 5,1 - - 0,0
24.06.2017 00:00:00 9,5 5,0 - - 0,4
23.06.2017 23:00:00 9,0 5,7 - - 0,0
23.06.2017 22:00:00 8,9 6,4 - 10 0,0
23.06.2017 21:00:00 9,4 5,6 - - 0,0
23.06.2017 20:00:00 9,7 5,5 - - 0,0
23.06.2017 19:00:00 10,2 6,2 - - 0,0
23.06.2017 18:00:00 10,2 6,0 - - 0,0
23.06.2017 17:00:00 10,5 5,8 - - 0,0
23.06.2017 16:00:00 10,0 5,5 - - 0,0
23.06.2017 15:00:00 11,7 4,4 - - 0,0
23.06.2017 14:00:00 11,0 5,4 - - 0,0
23.06.2017 13:00:00 11,0 6,3 - - 0,0
23.06.2017 12:00:00 11,0 7,7 - - 0,2
23.06.2017 11:00:00 10,5 7,3 - - 0,6
23.06.2017 10:00:00 10,3 8,2 - - 0,6
23.06.2017 09:00:00 10,9 8,4 - - 0,2
23.06.2017 08:00:00 11,2 9,0 - - 0,2
23.06.2017 07:00:00 12,5 10,3 - - 1,0
23.06.2017 06:00:00 12,0 10,7 - - 1,2
23.06.2017 05:00:00 12,7 10,3 - - 1,8
23.06.2017 04:00:00 11,7 10,2 - - 1,2
23.06.2017 03:00:00 11,3 10,0 - - 1,4
23.06.2017 02:00:00 11,2 9,3 - - 0,8
23.06.2017 01:00:00 11,3 9,0 - - 0,8
23.06.2017 00:00:00 11,4 9,0 - - 1,4
22.06.2017 23:00:00 10,5 9,3 - - 1,0
22.06.2017 22:00:00 10,3 9,2 - - 0,6
22.06.2017 21:00:00 11,1 8,2 - - 1,4
22.06.2017 20:00:00 11,3 8,4 - - 0,8
22.06.2017 19:00:00 11,9 8,5 - - 0,0
22.06.2017 18:00:00 11,9 8,9 - - 0,0
22.06.2017 17:00:00 12,8 9,3 - - 0,0
22.06.2017 16:00:00 13,1 9,3 - - 0,0
22.06.2017 15:00:00 13,0 8,2 - - 0,0
22.06.2017 14:00:00 13,6 7,8 - - 0,0
22.06.2017 13:00:00 14,2 10,1 - - 0,0
22.06.2017 12:00:00 12,7 8,6 - - 0,0
22.06.2017 11:00:00 12,1 8,8 - - 0,0
22.06.2017 10:00:00 10,8 8,2 - - 0,0
22.06.2017 09:00:00 10,8 8,2 - - -
22.06.2017 08:00:00 11,3 8,5 - - 0,0
22.06.2017 07:00:00 10,7 8,9 - - 0,0
22.06.2017 06:00:00 10,7 9,3 - - 0,0
22.06.2017 05:00:00 11,1 10,1 - - 0,2
22.06.2017 04:00:00 12,2 11,0 - - 0,0
22.06.2017 03:00:00 12,0 11,2 - - 0,0
22.06.2017 02:00:00 12,5 11,1 - - 0,0
22.06.2017 01:00:00 12,7 11,0 - - 0,0
22.06.2017 00:00:00 13,5 10,2 - - 0,0
21.06.2017 23:00:00 13,1 11,3 - - 0,0
21.06.2017 22:00:00 14,2 11,9 - - 0,0
21.06.2017 21:00:00 15,2 12,7 - - 0,0
21.06.2017 20:00:00 15,1 12,9 - - 0,0
21.06.2017 19:00:00 15,8 13,8 - - 1,2
21.06.2017 18:00:00 16,1 15,0 - - 1,6
21.06.2017 17:00:00 16,9 14,2 - - 2,4
21.06.2017 16:00:00 18,5 14,0 - - 0,0
21.06.2017 15:00:00 21,6 14,8 - - 0,0
21.06.2017 14:00:00 20,3 14,4 - - 0,0
21.06.2017 13:00:00 20,5 13,8 - - 0,0
21.06.2017 12:00:00 19,0 13,8 - - 0,0
21.06.2017 11:00:00 17,7 12,8 - - 0,0
21.06.2017 10:00:00 15,3 11,3 15,3 - 0,0
21.06.2017 09:00:00 13,3 10,2 - - 0,0
21.06.2017 08:00:00 11,9 9,4 - - 0,0
21.06.2017 07:00:00 11,5 8,9 - - 0,0
21.06.2017 06:00:00 11,3 8,6 - - 0,0
21.06.2017 05:00:00 11,1 8,4 - - 0,0
21.06.2017 04:00:00 11,2 8,2 - - 0,0
21.06.2017 03:00:00 11,5 8,1 - - 0,0
21.06.2017 02:00:00 11,8 7,8 - - 0,0
21.06.2017 01:00:00 12,4 8,0 - - 0,0
21.06.2017 00:00:00 12,9 7,7 - - 0,0
20.06.2017 23:00:00 13,4 7,9 - - 0,0
20.06.2017 22:00:00 14,1 8,4 - - 0,0
20.06.2017 21:00:00 13,6 9,2 - - 0,0
20.06.2017 20:00:00 15,6 9,1 - - 0,0
20.06.2017 19:00:00 19,1 7,3 - - 0,0
20.06.2017 18:00:00 18,8 3,8 - - 0,0
20.06.2017 17:00:00 18,1 5,9 - - 0,0
20.06.2017 16:00:00 17,6 6,5 - - 0,0
20.06.2017 15:00:00 17,0 7,3 - - 0,0
20.06.2017 14:00:00 15,7 7,0 - - 0,0
20.06.2017 13:00:00 15,0 7,4 - - 0,0
20.06.2017 12:00:00 13,2 6,0 - - 0,0
20.06.2017 11:00:00 11,9 5,6 - - 0,0
20.06.2017 10:00:00 11,1 5,9 11,1 - 0,0
20.06.2017 09:00:00 10,2 5,8 - - 0,0
20.06.2017 08:00:00 9,5 5,9 - - 0,0
20.06.2017 07:00:00 9,1 5,4 - - 0,0
20.06.2017 06:00:00 7,2 5,6 - - 0,0
20.06.2017 05:00:00 5,7 4,2 - - 0,0
20.06.2017 04:00:00 6,3 4,5 - - 0,0
20.06.2017 03:00:00 6,6 4,4 - - 0,0
20.06.2017 02:00:00 7,1 4,3 - - 0,0
20.06.2017 01:00:00 8,1 4,6 - - 0,0
20.06.2017 00:00:00 8,4 5,2 - - 0,0
19.06.2017 23:00:00 8,0 4,1 - - 0,0
19.06.2017 22:00:00 9,7 3,9 - - 0,0
19.06.2017 21:00:00 11,2 6,0 - - 0,0
19.06.2017 20:00:00 11,7 5,7 - - 0,0
19.06.2017 19:00:00 12,7 7,4 - - 0,0
19.06.2017 18:00:00 12,8 7,8 - - 0,0
19.06.2017 17:00:00 13,6 7,9 - - 0,0
19.06.2017 16:00:00 13,3 8,2 - - 0,0
19.06.2017 15:00:00 14,8 9,8 - - 0,0
19.06.2017 14:00:00 13,8 8,8 - - 0,0
19.06.2017 13:00:00 12,7 7,9 - - 0,0
19.06.2017 12:00:00 12,8 9,4 - - 0,0
19.06.2017 11:00:00 10,7 9,3 - - 0,2
19.06.2017 10:00:00 10,0 8,6 10,9 - 0,0
19.06.2017 09:00:00 10,8 9,5 - - 0,0
19.06.2017 08:00:00 10,6 10,0 - - 0,0
19.06.2017 07:00:00 9,9 9,7 - - 0,0
19.06.2017 06:00:00 9,9 9,7 - - 0,2
19.06.2017 05:00:00 9,7 9,5 - - 0,0
19.06.2017 04:00:00 9,8 9,5 - - 0,0
19.06.2017 03:00:00 10,2 9,7 - - 0,0
19.06.2017 02:00:00 10,1 9,5 - - 0,0
19.06.2017 01:00:00 10,2 9,4 - - 0,0
19.06.2017 00:00:00 10,4 9,4 - - 0,0
18.06.2017 23:00:00 10,2 9,2 - - 0,0
18.06.2017 22:00:00 10,9 9,4 - - 0,0
18.06.2017 21:00:00 11,1 9,4 - - 0,0
18.06.2017 20:00:00 11,8 9,4 - - 0,0
18.06.2017 19:00:00 12,4 9,3 - - 0,0
18.06.2017 18:00:00 12,4 9,3 - - 0,0
18.06.2017 17:00:00 12,2 9,7 - - 0,0
18.06.2017 16:00:00 11,5 10,1 - - 1,0
18.06.2017 15:00:00 12,6 7,7 - - 0,0
18.06.2017 14:00:00 13,3 7,6 - - 0,0
18.06.2017 13:00:00 14,3 8,7 - - 0,0
18.06.2017 12:00:00 13,9 7,2 - - 0,0
18.06.2017 11:00:00 14,1 8,1 - - 0,0
18.06.2017 10:00:00 14,7 8,6 15,0 - 0,0
18.06.2017 09:00:00 13,7 11,2 - - 0,0
18.06.2017 08:00:00 13,1 10,6 - - 0,0
18.06.2017 07:00:00 13,0 10,4 - - 0,0
18.06.2017 06:00:00 12,6 10,9 - - 0,0
18.06.2017 05:00:00 12,5 11,1 - - 0,0
18.06.2017 04:00:00 12,6 11,4 - - 0,2

tt = temperature
td = dewpoint
tt 5cm = temperature 5cm
vv = visibility
rr = precipitation

Next stations